Regional Weather Roundup
Issued by NWS

Home | Current Version | Previous Version | Graphics & Text | Print | Product List | Glossary Off
Versions: 1 2 3 4 5 6 7 8 9 10 11 12 13 14 15 16 17 18 19 20 21 22 23 24 25 26 27 28 29 30 31 32 33 34 35 36 37 38 39 40 41 42 43 44 45 46 47 48 49 50

000
ASUS43 KMKX 250600
RWRWI

WISCONSIN REGIONAL WEATHER ROUNDUP
NATIONAL WEATHER SERVICE MILWAUKEE/SULLIVAN WI
100 AM CDT MON JUL 25 2016

NOTE: "FAIR" INDICATES FEW OR NO CLOUDS BELOW 12,000 FEET WITH NO
SIGNIFICANT WEATHER AND/OR OBSTRUCTIONS TO VISIBILITY.

WIZ001-002-006>008-014>016-023>028-250700-
NORTHWEST WISCONSIN

CITY           SKY/WX    TMP DP  RH WIND       PRES   REMARKS
SUPERIOR ARPT  CLEAR     67  62  85 W7        29.90R
ASHLAND        CLEAR     67  61  81 SW8       29.90R
6HR MIN TEMP:  66; 6HR MAX TEMP:  80;

HAYWARD        CLEAR     67  61  81 SW3       29.94R
6HR MIN TEMP:  66; 6HR MAX TEMP:  79;

SIREN          NOT AVBL
CUMBERLAND     CLEAR     63  59  88 W6        29.96S
RICE LAKE      CLEAR     66  61  84 W5        29.97R
CHETEK         CLEAR     69  62  78 NW5       29.95S
LADYSMITH      CLEAR     67  62  82 W3        29.95S
EAU CLAIRE     NOT AVBL
MENOMONIE      CLEAR     70  63  78 SW5       29.96S
6HR MIN TEMP:  70; 6HR MAX TEMP:  82;

NEW RICHMOND   CLEAR     65  60  82 W7        29.98R
OSCEOLA        CLEAR     68  61  80 W6        30.00R
$$

WIZ003>005-009-010-017-018-250700-
NORTH CENTRAL WISCONSIN

CITY           SKY/WX    TMP DP  RH WIND       PRES   REMARKS
MANITOWISH WTR CLEAR     65  63  92 W7        29.91S
ARBOR VITAE    CLEAR     69  63  80 W3        29.93R
WOODRUFF       CLEAR     69  63  80 W3        29.93R
RHINELANDER    CLEAR     63  61  93 W6        29.94R
6HR MIN TEMP:  63; 6HR MAX TEMP:  78;

EAGLE RIVER    CLEAR     62  61  94 W6        29.91S
LAND O LAKES   CLEAR     66  60  79 W5        29.91S
PHILLIPS       CLEAR     65  61  88 W3        29.93S
TOMAHAWK       CLEAR     63  59  88 W3        29.94R
MEDFORD        CLEAR     64  64 100 W5        29.95S
MERRILL        CLEAR     66  62  87 W6        29.94S
$$

WIZ029-030-035-036-043>047-250700-
CENTRAL WISCONSIN

CITY           SKY/WX    TMP DP  RH WIND       PRES   REMARKS
WAUSAU         CLEAR     67  62  84 NW7       29.92R
6HR MIN TEMP:  67; 6HR MAX TEMP:  81;

MOSINEE        CLEAR     64  63  94 W6        29.95R
MARSHFIELD     CLEAR     66  61  84 W5        29.95R
6HR MIN TEMP:  66; 6HR MAX TEMP:  80;

STEVENS POINT  CLEAR     68  62  81 W3        29.95R
WAUPACA        CLEAR     71  67  87 CALM      29.93R
WAUTOMA        CLEAR     67  65  93 W6        29.95R
6HR MIN TEMP:  67; 6HR MAX TEMP:  84;

WISC RAPIDS    CLEAR     67  61  81 W5        29.96R
6HR MIN TEMP:  67; 6HR MAX TEMP:  83;

CAMP DOUGLAS   NOT AVBL
$$

WIZ011>013-019>022-031-037>040-048>050-250700-
NORTHEAST WISCONSIN

CITY           SKY/WX    TMP DP  RH WIND       PRES   REMARKS
ANTIGO         CLEAR     65  62  90 CALM      29.94R
SHAWANO        PTCLDY    71  64  79 W5        29.90R
OCONTO         CLOUDY    71  71 100 W6        29.87R
STURGEON BAY   CLOUDY    73  67  81 W6        29.88R
6HR MIN TEMP:  73; 6HR MAX TEMP:  84;

GREEN BAY      CLOUDY    70  67  90 W7        29.90R
6HR MIN TEMP:  70; 6HR MAX TEMP:  83;

MANITOWOC      NOT AVBL
APPLETON       PTCLDY    70  61  73 W9        29.90R
CLINTONVILLE   CLEAR     68  61  77 W3        29.91R
OSHKOSH        CLOUDY    72  64  76 W6        29.92R
6HR MIN TEMP:  72; 6HR MAX TEMP:  85;

$$

WIZ032>034-041-042-053>061-250700-
SOUTHWEST WISCONSIN

CITY           SKY/WX    TMP DP  RH WIND       PRES   REMARKS
LA CROSSE      CLEAR     71  66  84 CALM      29.97R
6HR MIN TEMP:  71; 6HR MAX TEMP:  83;

SPARTA         CLEAR     65  63  96 CALM      29.97R
VIROQUA        CLEAR     68  65  91 W5        29.99R
BOSCOBEL       CLOUDY    70  67  90 CALM      29.99R
6HR MIN TEMP:  68; 6HR MAX TEMP:  82;

PRAIRIE DU CHI CLOUDY    71  64  79 CALM      29.98R
PLATTEVILLE    CLOUDY    69  68  99 W5        29.99S
$$

WIZ056-057-062-063-064-067-068-250700-
SOUTH CENTRAL WISCONSIN

CITY           SKY/WX    TMP DP  RH WIND       PRES   REMARKS
REEDSBURG      PTCLDY    69  67  93 CALM      29.97R
BARABOO/DELLS  PTCLDY    69  64  82 W5        29.97R
LONE ROCK      NOT AVBL
MINERAL POINT  MOCLDY    70  68  94 NW3       29.99R
MADISON        CLOUDY    74  66  76 VRB6      29.95R
6HR MIN TEMP:  74; 6HR MAX TEMP:  86;

MIDDLETON      CLOUDY    72  67  84 W6        29.97R
WATERTOWN      CLOUDY    74  67  77 NW7       29.93R
MONROE         CLOUDY    72  66  83 NW10      29.97R
JANESVILLE     CLOUDY    73  68  83 NW7       29.95R
$$

WIZ051-052-058>065-066-070>072-250700-
SOUTHEAST WISCONSIN

CITY           SKY/WX    TMP DP  RH WIND       PRES   REMARKS
MILWAUKEE      CLOUDY    81  66  60 W9        29.92R HX  83
6HR MIN TEMP:  81; 6HR MAX TEMP:  92;

WAUKESHA       CLOUDY    73  64  73 NW7       29.94R
MILWAUKEE/TIMM CLOUDY    77  63  61 W8        29.92R
RACINE         CLOUDY    77  67  71 W3        29.95R
6HR MIN TEMP:  77; 6HR MAX TEMP:  88; 6HR PCP:  0.05;

BURLINGTON     CLOUDY    74  69  83 W3        29.94R
KENOSHA        CLOUDY    75  68  78 SW5       29.95R
6HR MIN TEMP:  74; 6HR MAX TEMP:  90;

FOND DU LAC    CLOUDY    73  65  75 NW10      29.93R
6HR MIN TEMP:  73; 6HR MAX TEMP:  86;

SHEBOYGAN      MOCLDY    75  66  73 NW7       29.91R
6HR MIN TEMP:  73; 6HR MAX TEMP:  87;

WEST BEND      CLOUDY    73  64  73 NW6       29.93R
JUNEAU         PTCLDY    73  65  75 NW6       29.95R
$$

LSZ147-162-250700-
LAKE SUPERIOR

STATION/POSITION TIME  TEMP    WIND        PRES    WAVE
                       AIR SEA DIR/SP/G            HT/PER
                 (UTC) (F)     (DEG/KT/KT) (MB)    (FT/S)
W MID LAKE BUOY  0450   64 59  250/ 12/ 12 1008.8R   1/ 4
DEVILS ISLAND    0500   66     260/ 16/ 20 1010.4R
SAXON HARBOR     0540   72     210/  7/ 10 1011.5R
$$

LMZ867-665-643>646-250700-
LAKE MICHIGAN

STATION/POSITION TIME  TEMP    WIND        PRES    WAVE
                       AIR SEA DIR/SP/G            HT/PER
                 (UTC) (F)     (DEG/KT/KT) (MB)    (FT/S)
CHAMBERS ISLAND  0500   74     280/  5/ 10 1010.2R
S GREEN BAY BUOY 0400   75 73  260/  8/ 10   N/A
N MID LAKE BUOY  0450   70 68  320/  6/  6 1008.9R   3/ 6
NORTHPORT PIER   0500   74     340/  7/ 10 1010.2R
KEWAUNEE LAKESHO 0500   73     300/  3/  4 1010.5R
SHEBOYGAN LAKESH 0500   78     270/  6/  7 1011.8R
PORT WASHINGTON  0540   78     290/  4/  6 1013.5R
MILWAUKEE LAKESH 0510   81     290/  7/  9   N/A
S MID LAKE BUOY  0450   75 73  210/ 10/ 10 1010.9R   2/ 4
KENOSHA   LAKESH 0500   81     290/  9/ 11 1012.5R
$$

TC  - TEMPERATURE IN CELSIUS
VSB - VISIBILITY IN STATUTE MILES
WCI - WIND CHILL INDEX
HX  - HEAT INDEX





USA.gov is the U.S. government's official web portal to all federal, state and local government web resources and services.